| time (UTC) | temp C | wind direction | speed KPH | gust KPH | rain 1hr cm | rain 24hr cm | rain mn cm | humidity % | barometer mb |
| 20260509105020 | 17 | 240 | 0.0 | 0.0 | 0.00 | 0.00 | 0.00 | 89 | 1012.7 |
| 20260509104524 | 17 | 240 | 0.0 | 0.0 | 0.00 | 0.00 | 0.00 | 89 | 1012.7 |
| 20260509104027 | 17 | 240 | 0.0 | 0.0 | 0.00 | 0.00 | 0.00 | 89 | 1012.7 |
| 20260509103534 | 17 | 240 | 0.0 | 0.0 | 0.00 | 0.00 | 0.00 | 89 | 1012.7 |
| 20260509103035 | 17 | 240 | 0.0 | 3.2 | 0.00 | 0.00 | 0.00 | 89 | 1012.7 |
| 20260509102519 | 17 | 240 | 0.0 | 3.2 | 0.00 | 0.00 | 0.00 | 89 | 1012.8 |
| 20260509102022 | 17 | 244 | 0.0 | 6.4 | 0.00 | 0.00 | 0.00 | 89 | 1012.9 |
| 20260509101536 | 17 | 244 | 0.0 | 6.4 | 0.00 | 0.00 | 0.00 | 89 | 1012.8 |
| 20260509101020 | 17 | 244 | 1.6 | 6.4 | 0.00 | 0.00 | 0.00 | 89 | 1012.8 |
| 20260509100525 | 17 | 244 | 0.0 | 0.0 | 0.00 | 0.00 | 0.00 | 89 | 1012.8 |
| 20260509100034 | 17 | 244 | 0.0 | 0.0 | 0.00 | 0.00 | 0.00 | 89 | 1013.0 |
| 20260509095537 | 17 | 244 | 0.0 | 1.6 | 0.00 | 0.00 | 0.00 | 89 | 1012.9 |
| 20260509095020 | 17 | 244 | 0.0 | 3.2 | 0.00 | 0.00 | 0.00 | 89 | 1012.9 |
| 20260509094522 | 17 | 244 | 0.0 | 3.2 | 0.00 | 0.00 | 0.00 | 89 | 1012.9 |
| 20260509094049 | 17 | 244 | 0.0 | 3.2 | 0.00 | 0.00 | 0.00 | 89 | 1013.0 |
| 20260509093535 | 17 | 244 | 0.0 | 4.8 | 0.00 | 0.00 | 0.00 | 89 | 1013.0 |
| 20260509093032 | 17 | 244 | 0.0 | 4.8 | 0.00 | 0.00 | 0.00 | 89 | 1013.0 |
| 20260509092529 | 17 | 244 | 0.0 | 3.2 | 0.00 | 0.00 | 0.00 | 89 | 1013.1 |
| 20260509092030 | 17 | 244 | 0.0 | 3.2 | 0.00 | 0.00 | 0.00 | 89 | 1013.0 |
| 20260509091538 | 17 | 244 | 0.0 | 1.6 | 0.00 | 0.00 | 0.00 | 88 | 1013.1 |
| 20260509091040 | 17 | 244 | 0.0 | 3.2 | 0.00 | 0.00 | 0.00 | 88 | 1013.2 |
| 20260509090522 | 17 | 244 | 0.0 | 3.2 | 0.00 | 0.00 | 0.00 | 88 | 1013.2 |
| 20260509090020 | 17 | 244 | 0.0 | 3.2 | 0.00 | 0.00 | 0.00 | 88 | 1013.2 |
| 20260509085546 | 17 | 244 | 0.0 | 3.2 | 0.00 | 0.00 | 0.00 | 89 | 1013.2 |
| 20260509085026 | 17 | 244 | 0.0 | 3.2 | 0.00 | 0.00 | 0.00 | 88 | 1013.2 |
| 20260509084526 | 17 | 244 | 0.0 | 3.2 | 0.00 | 0.00 | 0.00 | 88 | 1013.2 |
| 20260509084021 | 17 | 246 | 0.0 | 1.6 | 0.00 | 0.00 | 0.00 | 88 | 1013.2 |
| 20260509083520 | 17 | 251 | 0.0 | 4.8 | 0.00 | 0.00 | 0.00 | 88 | 1013.3 |
| 20260509083050 | 17 | 251 | 1.6 | 4.8 | 0.00 | 0.00 | 0.00 | 88 | 1013.3 |
| 20260509082525 | 17 | 250 | 1.6 | 4.8 | 0.00 | 0.00 | 0.00 | 88 | 1013.4 |
| 20260509082052 | 17 | 250 | 1.6 | 3.2 | 0.00 | 0.00 | 0.00 | 88 | 1013.4 |
| 20260509081538 | 17 | 251 | 0.0 | 3.2 | 0.00 | 0.00 | 0.00 | 88 | 1013.5 |
| 20260509081043 | 17 | 252 | 0.0 | 1.6 | 0.00 | 0.00 | 0.00 | 88 | 1013.5 |
| 20260509080528 | 17 | 252 | 0.0 | 1.6 | 0.00 | 0.00 | 0.00 | 88 | 1013.5 |
| 20260509080023 | 17 | 252 | 0.0 | 1.6 | 0.00 | 0.00 | 0.00 | 88 | 1013.6 |
| 20260509075526 | 17 | 252 | 0.0 | 3.2 | 0.00 | 0.00 | 0.00 | 88 | 1013.7 |
| 20260509075032 | 17 | 252 | 0.0 | 3.2 | 0.00 | 0.00 | 0.00 | 88 | 1013.8 |
| 20260509074538 | 17 | 252 | 0.0 | 3.2 | 0.00 | 0.00 | 0.00 | 88 | 1013.9 |
| 20260509074019 | 17 | 252 | 0.0 | 3.2 | 0.00 | 0.00 | 0.00 | 88 | 1013.9 |
| 20260509073522 | 17 | 252 | 0.0 | 4.8 | 0.00 | 0.00 | 0.00 | 88 | 1013.9 |
| 20260509073025 | 17 | 252 | 0.0 | 4.8 | 0.00 | 0.00 | 0.00 | 88 | 1013.9 |
| 20260509072550 | 17 | 252 | 0.0 | 4.8 | 0.00 | 0.00 | 0.00 | 88 | 1013.8 |
| 20260509072029 | 17 | 252 | 0.0 | 4.8 | 0.00 | 0.00 | 0.00 | 88 | 1013.8 |
| 20260509071534 | 17 | 252 | 1.6 | 4.8 | 0.00 | 0.00 | 0.00 | 88 | 1013.8 |
| 20260509071041 | 17 | 254 | 0.0 | 1.6 | 0.00 | 0.00 | 0.00 | 88 | 1013.8 |
| 20260509070522 | 17 | 254 | 0.0 | 3.2 | 0.00 | 0.00 | 0.00 | 88 | 1013.8 |
| 20260509070028 | 17 | 254 | 0.0 | 3.2 | 0.00 | 0.00 | 0.00 | 88 | 1013.9 |
| 20260509065528 | 17 | 254 | 0.0 | 0.0 | 0.00 | 0.00 | 0.00 | 88 | 1014.0 |
| 20260509065038 | 17 | 254 | 0.0 | 3.2 | 0.00 | 0.00 | 0.00 | 88 | 1014.0 |
| 20260509064554 | 17 | 254 | 1.6 | 3.2 | 0.00 | 0.00 | 0.00 | 88 | 1014.0 |
| 20260509064102 | 17 | 254 | 0.0 | 0.0 | 0.00 | 0.00 | 0.00 | 88 | 1014.0 |
| 20260509063539 | 17 | 254 | 0.0 | 0.0 | 0.00 | 0.00 | 0.00 | 88 | 1014.0 |
| 20260509063020 | 17 | 254 | 0.0 | 0.0 | 0.00 | 0.00 | 0.00 | 88 | 1014.0 |
| 20260509062536 | 17 | 254 | 0.0 | 0.0 | 0.00 | 0.00 | 0.00 | 88 | 1014.0 |
| 20260509062020 | 17 | 254 | 0.0 | 0.0 | 0.00 | 0.00 | 0.00 | 88 | 1014.0 |
| 20260509061521 | 17 | 254 | 0.0 | 0.0 | 0.00 | 0.00 | 0.00 | 88 | 1014.0 |
| 20260509061025 | 17 | 254 | 0.0 | 0.0 | 0.00 | 0.00 | 0.00 | 88 | 1014.1 |
| 20260509060528 | 17 | 254 | 0.0 | 0.0 | 0.00 | 0.00 | 0.00 | 88 | 1014.1 |
| 20260509060037 | 17 | 254 | 0.0 | 0.0 | 0.00 | 0.00 | 0.00 | 88 | 1014.1 |
| 20260509055522 | 17 | 254 | 0.0 | 0.0 | 0.00 | 0.00 | 0.00 | 88 | 1014.2 |
| 20260509055024 | 17 | 254 | 0.0 | 0.0 | 0.00 | 0.00 | 0.00 | 88 | 1014.2 |
| 20260509054526 | 17 | 254 | 0.0 | 0.0 | 0.00 | 0.00 | 0.00 | 88 | 1014.1 |
| 20260509054029 | 17 | 254 | 0.0 | 0.0 | 0.00 | 0.00 | 0.00 | 88 | 1014.2 |
| 20260509053538 | 17 | 254 | 0.0 | 0.0 | 0.00 | 0.00 | 0.00 | 88 | 1014.2 |
| 20260509053033 | 17 | 254 | 0.0 | 3.2 | 0.00 | 0.00 | 0.00 | 87 | 1014.2 |
| 20260509052559 | 17 | 254 | 0.0 | 3.2 | 0.00 | 0.00 | 0.00 | 87 | 1014.3 |
| 20260509052026 | 17 | 255 | 1.6 | 4.8 | 0.00 | 0.00 | 0.00 | 88 | 1014.2 |
| 20260509051535 | 17 | 255 | 0.0 | 4.8 | 0.00 | 0.00 | 0.00 | 88 | 1014.2 |
| 20260509051020 | 17 | 255 | 1.6 | 4.8 | 0.00 | 0.00 | 0.00 | 88 | 1014.2 |
| 20260509050524 | 17 | 255 | 0.0 | 3.2 | 0.00 | 0.00 | 0.00 | 88 | 1014.2 |
| 20260509050050 | 17 | 255 | 0.0 | 3.2 | 0.00 | 0.00 | 0.00 | 88 | 1014.2 |
| 20260509045537 | 17 | 255 | 1.6 | 6.4 | 0.00 | 0.00 | 0.00 | 88 | 1014.3 |
| 20260509045019 | 17 | 255 | 3.2 | 6.4 | 0.00 | 0.00 | 0.00 | 87 | 1014.2 |
| 20260509044524 | 17 | 259 | 1.6 | 6.4 | 0.00 | 0.00 | 0.00 | 87 | 1014.2 |
| 20260509044027 | 17 | 259 | 0.0 | 6.4 | 0.00 | 0.00 | 0.00 | 87 | 1014.1 |
| 20260509043554 | 17 | 261 | 1.6 | 4.8 | 0.00 | 0.00 | 0.00 | 87 | 1014.1 |
| 20260509043038 | 17 | 261 | 1.6 | 4.8 | 0.00 | 0.00 | 0.00 | 87 | 1014.1 |
| 20260509042524 | 17 | 261 | 1.6 | 3.2 | 0.00 | 0.00 | 0.00 | 87 | 1014.1 |
| 20260509042029 | 17 | 261 | 0.0 | 4.8 | 0.00 | 0.00 | 0.00 | 87 | 1014.0 |
| 20260509041536 | 17 | 261 | 0.0 | 4.8 | 0.00 | 0.00 | 0.00 | 87 | 1014.0 |
| 20260509041020 | 17 | 284 | 1.6 | 4.8 | 0.00 | 0.00 | 0.00 | 87 | 1014.0 |
| 20260509040527 | 17 | 285 | 0.0 | 4.8 | 0.00 | 0.00 | 0.00 | 87 | 1013.9 |
| 20260509040027 | 17 | 285 | 1.6 | 4.8 | 0.00 | 0.00 | 0.00 | 87 | 1013.9 |
| 20260509035530 | 17 | 285 | 0.0 | 1.6 | 0.00 | 0.00 | 0.00 | 87 | 1013.9 |
| 20260509035059 | 17 | 285 | 0.0 | 6.4 | 0.00 | 0.00 | 0.00 | 87 | 1013.9 |
| 20260509034520 | 17 | 285 | 1.6 | 6.4 | 0.00 | 0.00 | 0.00 | 87 | 1013.8 |
| 20260509034025 | 17 | 302 | 1.6 | 3.2 | 0.00 | 0.00 | 0.00 | 87 | 1013.8 |
| 20260509033530 | 17 | 327 | 0.0 | 1.6 | 0.00 | 0.00 | 0.00 | 86 | 1013.7 |
| 20260509033034 | 17 | 327 | 0.0 | 1.6 | 0.00 | 0.00 | 0.00 | 86 | 1013.6 |
| 20260509032538 | 17 | 327 | 0.0 | 1.6 | 0.00 | 0.00 | 0.00 | 86 | 1013.6 |
| 20260509032021 | 17 | 327 | 0.0 | 3.2 | 0.00 | 0.00 | 0.00 | 86 | 1013.6 |
| 20260509031527 | 17 | 327 | 0.0 | 8.0 | 0.00 | 0.00 | 0.00 | 86 | 1013.6 |
| 20260509031028 | 17 | 327 | 1.6 | 8.0 | 0.00 | 0.00 | 0.00 | 85 | 1013.6 |
| 20260509030540 | 17 | 273 | 1.6 | 6.4 | 0.00 | 0.00 | 0.00 | 85 | 1013.6 |
| 20260509030020 | 17 | 282 | 1.6 | 6.4 | 0.00 | 0.00 | 0.00 | 85 | 1013.6 |
| 20260509025546 | 17 | 267 | 1.6 | 8.0 | 0.00 | 0.00 | 0.00 | 85 | 1013.6 |
| 20260509025025 | 17 | 269 | 3.2 | 9.7 | 0.00 | 0.00 | 0.00 | 85 | 1013.5 |
| 20260509024551 | 17 | 257 | 3.2 | 9.7 | 0.00 | 0.00 | 0.00 | 85 | 1013.4 |
| 20260509024054 | 17 | 225 | 3.2 | 8.0 | 0.00 | 0.00 | 0.00 | 84 | 1013.4 |
| 20260509023539 | 17 | 272 | 3.2 | 8.0 | 0.00 | 0.00 | 0.00 | 84 | 1013.3 |
| 20260509023023 | 17 | 296 | 4.8 | 8.0 | 0.00 | 0.00 | 0.00 | 84 | 1013.3 |
| 20260509022524 | 18 | 311 | 1.6 | 9.7 | 0.00 | 0.00 | 0.00 | 84 | 1013.3 |
| 20260509022024 | 18 | 261 | 1.6 | 9.7 | 0.00 | 0.00 | 0.00 | 83 | 1013.3 |
| 20260509021523 | 18 | 249 | 3.2 | 8.0 | 0.00 | 0.00 | 0.00 | 83 | 1013.2 |
| 20260509021027 | 18 | 267 | 3.2 | 8.0 | 0.00 | 0.00 | 0.00 | 83 | 1013.1 |
| 20260509020528 | 18 | 305 | 3.2 | 8.0 | 0.00 | 0.00 | 0.00 | 83 | 1013.1 |
| 20260509020037 | 18 | 327 | 3.2 | 8.0 | 0.00 | 0.00 | 0.00 | 82 | 1013.1 |
| 20260509015521 | 18 | 336 | 3.2 | 8.0 | 0.00 | 0.00 | 0.00 | 82 | 1013.1 |
| 20260509015022 | 18 | 269 | 1.6 | 9.7 | 0.00 | 0.00 | 0.00 | 82 | 1013.0 |
| 20260509014537 | 18 | 251 | 3.2 | 11.3 | 0.00 | 0.00 | 0.00 | 81 | 1013.0 |
| 20260509014045 | 18 | 272 | 4.8 | 11.3 | 0.00 | 0.00 | 0.00 | 82 | 1013.0 |
| 20260509013549 | 18 | 262 | 3.2 | 11.3 | 0.00 | 0.00 | 0.00 | 81 | 1013.0 |
| 20260509013022 | 18 | 289 | 4.8 | 11.3 | 0.00 | 0.00 | 0.00 | 81 | 1013.0 |
| 20260509012528 | 18 | 315 | 4.8 | 11.3 | 0.00 | 0.00 | 0.00 | 80 | 1013.0 |
| 20260509012034 | 19 | 286 | 4.8 | 9.7 | 0.00 | 0.00 | 0.00 | 79 | 1013.0 |
| 20260509011539 | 19 | 297 | 3.2 | 9.7 | 0.00 | 0.00 | 0.00 | 79 | 1013.0 |
| 20260509011045 | 19 | 271 | 3.2 | 9.7 | 0.00 | 0.00 | 0.00 | 79 | 1012.9 |
| 20260509010551 | 19 | 273 | 3.2 | 11.3 | 0.00 | 0.00 | 0.00 | 78 | 1012.9 |
| 20260509010031 | 19 | 303 | 4.8 | 11.3 | 0.00 | 0.00 | 0.00 | 78 | 1013.0 |
| 20260509005535 | 20 | 276 | 4.8 | 11.3 | 0.00 | 0.00 | 0.00 | 78 | 1013.0 |
| 20260509005020 | 20 | 298 | 6.4 | 11.3 | 0.00 | 0.00 | 0.00 | 77 | 1013.0 |
| 20260509004529 | 20 | 288 | 6.4 | 9.7 | 0.00 | 0.00 | 0.00 | 76 | 1013.1 |
| 20260509004035 | 20 | 236 | 6.4 | 11.3 | 0.00 | 0.00 | 0.00 | 76 | 1013.0 |
| 20260509003538 | 20 | 296 | 6.4 | 11.3 | 0.00 | 0.00 | 0.00 | 75 | 1013.0 |
| 20260509003021 | 21 | 291 | 4.8 | 12.9 | 0.00 | 0.00 | 0.00 | 74 | 1012.9 |
| 20260509002539 | 21 | 306 | 6.4 | 12.9 | 0.00 | 0.00 | 0.00 | 73 | 1012.9 |
| 20260509002035 | 21 | 290 | 4.8 | 9.7 | 0.00 | 0.00 | 0.00 | 73 | 1012.9 |
| 20260509001558 | 21 | 326 | 4.8 | 11.3 | 0.00 | 0.00 | 0.00 | 73 | 1012.9 |
| 20260509001021 | 21 | 273 | 4.8 | 16.1 | 0.00 | 0.00 | 0.00 | 73 | 1013.0 |
| 20260509000524 | 21 | 310 | 6.4 | 16.1 | 0.00 | 0.00 | 0.00 | 73 | 1013.0 |
| 20260509000030 | 21 | 342 | 4.8 | 16.1 | 0.00 | 0.00 | 0.00 | 73 | 1013.1 |
| 20260508235531 | 21 | 284 | 8.0 | 16.1 | 0.00 | 0.00 | 0.00 | 73 | 1013.1 |
| 20260508235036 | 21 | 248 | 6.4 | 14.5 | 0.00 | 0.00 | 0.00 | 73 | 1013.1 |
| 20260508234520 | 21 | 279 | 6.4 | 16.1 | 0.00 | 0.00 | 0.00 | 74 | 1013.2 |
| 20260508234020 | 21 | 284 | 8.0 | 16.1 | 0.00 | 0.00 | 0.00 | 74 | 1013.3 |
| 20260508233523 | 21 | 309 | 8.0 | 17.7 | 0.00 | 0.00 | 0.00 | 74 | 1013.3 |
| 20260508233054 | 21 | 265 | 8.0 | 19.3 | 0.00 | 0.00 | 0.00 | 73 | 1013.3 |
| 20260508232520 | 21 | 322 | 8.0 | 19.3 | 0.00 | 0.00 | 0.00 | 73 | 1013.3 |
| 20260508232024 | 21 | 277 | 8.0 | 17.7 | 0.00 | 0.00 | 0.00 | 73 | 1013.4 |
| 20260508231525 | 21 | 339 | 9.7 | 17.7 | 0.00 | 0.00 | 0.00 | 72 | 1013.4 |
| 20260508231048 | 22 | 331 | 8.0 | 16.1 | 0.00 | 0.00 | 0.00 | 72 | 1013.5 |
| 20260508230537 | 21 | 327 | 6.4 | 16.1 | 0.00 | 0.00 | 0.00 | 72 | 1013.6 |
| 20260508230021 | 21 | 286 | 4.8 | 19.3 | 0.00 | 0.00 | 0.00 | 72 | 1013.5 |
| 20260508225548 | 21 | 314 | 8.0 | 19.3 | 0.00 | 0.00 | 0.00 | 72 | 1013.5 |
| 20260508225034 | 22 | 323 | 6.4 | 17.7 | 0.00 | 0.00 | 0.00 | 72 | 1013.6 |
| 20260508224517 | 22 | 351 | 8.0 | 17.7 | 0.00 | 0.00 | 0.00 | 72 | 1013.6 |
| 20260508224023 | 22 | 327 | 8.0 | 17.7 | 0.00 | 0.00 | 0.00 | 71 | 1013.7 |
| 20260508223527 | 22 | 288 | 8.0 | 17.7 | 0.00 | 0.00 | 0.00 | 70 | 1013.7 |
| 20260508223032 | 22 | 261 | 8.0 | 16.1 | 0.00 | 0.00 | 0.00 | 70 | 1013.8 |
| 20260508222520 | 22 | 297 | 8.0 | 17.7 | 0.00 | 0.00 | 0.00 | 70 | 1013.8 |
| 20260508222024 | 22 | 308 | 11.3 | 17.7 | 0.00 | 0.00 | 0.00 | 69 | 1013.8 |
| 20260508221529 | 22 | 286 | 9.7 | 17.7 | 0.00 | 0.00 | 0.00 | 69 | 1013.9 |
| 20260508221039 | 22 | 287 | 8.0 | 16.1 | 0.00 | 0.00 | 0.00 | 69 | 1013.9 |
| 20260508220523 | 22 | 263 | 9.7 | 16.1 | 0.00 | 0.00 | 0.00 | 69 | 1013.9 |
| 20260508220051 | 22 | 270 | 8.0 | 19.3 | 0.00 | 0.00 | 0.00 | 69 | 1013.9 |
| 20260508215601 | 22 | 321 | 6.4 | 19.3 | 0.00 | 0.00 | 0.00 | 70 | 1014.1 |
| 20260508215022 | 22 | 327 | 8.0 | 17.7 | 0.00 | 0.00 | 0.00 | 70 | 1014.1 |
| 20260508214549 | 22 | 277 | 6.4 | 19.3 | 0.00 | 0.00 | 0.00 | 71 | 1014.1 |
| 20260508214031 | 22 | 331 | 9.7 | 19.3 | 0.00 | 0.00 | 0.00 | 70 | 1014.2 |
| 20260508213535 | 22 | 282 | 8.0 | 19.3 | 0.00 | 0.00 | 0.00 | 70 | 1014.2 |
| 20260508213027 | 22 | 274 | 11.3 | 19.3 | 0.00 | 0.00 | 0.00 | 70 | 1014.2 |
| 20260508212531 | 22 | 294 | 8.0 | 19.3 | 0.00 | 0.00 | 0.00 | 69 | 1014.3 |
| 20260508212037 | 22 | 197 | 9.7 | 19.3 | 0.00 | 0.00 | 0.00 | 70 | 1014.2 |
| 20260508211524 | 22 | 276 | 9.7 | 14.5 | 0.00 | 0.00 | 0.00 | 69 | 1014.3 |
| 20260508211029 | 22 | 313 | 6.4 | 14.5 | 0.00 | 0.00 | 0.00 | 69 | 1014.2 |
| 20260508210535 | 22 | 304 | 6.4 | 14.5 | 0.00 | 0.00 | 0.00 | 70 | 1014.3 |
| 20260508210020 | 22 | 286 | 6.4 | 16.1 | 0.00 | 0.00 | 0.00 | 71 | 1014.2 |
| 20260508205526 | 21 | 300 | 8.0 | 17.7 | 0.00 | 0.00 | 0.00 | 71 | 1014.3 |
| 20260508205035 | 22 | 290 | 9.7 | 22.5 | 0.00 | 0.00 | 0.00 | 70 | 1014.3 |
| 20260508204520 | 22 | 320 | 9.7 | 22.5 | 0.00 | 0.00 | 0.00 | 69 | 1014.3 |
| 20260508204027 | 22 | 305 | 9.7 | 19.3 | 0.00 | 0.00 | 0.00 | 69 | 1014.4 |
| 20260508203533 | 22 | 311 | 8.0 | 19.3 | 0.00 | 0.00 | 0.00 | 69 | 1014.3 |
| 20260508203039 | 22 | 265 | 8.0 | 17.7 | 0.00 | 0.00 | 0.00 | 69 | 1014.4 |
| 20260508202523 | 22 | 229 | 6.4 | 17.7 | 0.00 | 0.00 | 0.00 | 69 | 1014.4 |
| 20260508202031 | 22 | 314 | 6.4 | 14.5 | 0.00 | 0.00 | 0.00 | 69 | 1014.5 |
| 20260508201555 | 22 | 303 | 6.4 | 17.7 | 0.00 | 0.00 | 0.00 | 69 | 1014.5 |
| 20260508201038 | 22 | 258 | 8.0 | 17.7 | 0.00 | 0.00 | 0.00 | 70 | 1014.5 |
| 20260508200520 | 22 | 264 | 6.4 | 16.1 | 0.00 | 0.00 | 0.00 | 70 | 1014.5 |
| 20260508200025 | 22 | 316 | 8.0 | 16.1 | 0.00 | 0.00 | 0.00 | 70 | 1014.6 |
| 20260508195527 | 22 | 260 | 9.7 | 16.1 | 0.00 | 0.00 | 0.00 | 70 | 1014.6 |
| 20260508195029 | 22 | 240 | 8.0 | 17.7 | 0.00 | 0.00 | 0.00 | 70 | 1014.7 |
| 20260508194538 | 22 | 235 | 6.4 | 17.7 | 0.00 | 0.00 | 0.00 | 71 | 1014.8 |
| 20260508194043 | 22 | 263 | 8.0 | 16.1 | 0.00 | 0.00 | 0.00 | 70 | 1014.8 |
| 20260508193526 | 22 | 288 | 4.8 | 16.1 | 0.00 | 0.00 | 0.00 | 70 | 1014.7 |
| 20260508193029 | 22 | 263 | 6.4 | 16.1 | 0.00 | 0.00 | 0.00 | 71 | 1014.8 |
| 20260508192528 | 22 | 298 | 6.4 | 17.7 | 0.00 | 0.00 | 0.00 | 70 | 1014.9 |
| 20260508192038 | 22 | 263 | 8.0 | 17.7 | 0.00 | 0.00 | 0.00 | 71 | 1015.0 |
| 20260508191521 | 22 | 284 | 8.0 | 16.1 | 0.00 | 0.00 | 0.00 | 70 | 1015.1 |
| 20260508191023 | 22 | 269 | 6.4 | 17.7 | 0.00 | 0.00 | 0.00 | 71 | 1015.2 |
| 20260508190526 | 22 | 322 | 8.0 | 17.7 | 0.00 | 0.00 | 0.00 | 72 | 1015.2 |
| 20260508190024 | 22 | 269 | 8.0 | 14.5 | 0.00 | 0.00 | 0.00 | 71 | 1015.2 |
| 20260508185533 | 22 | 236 | 8.0 | 14.5 | 0.00 | 0.00 | 0.00 | 71 | 1015.3 |
| 20260508185020 | 22 | 281 | 6.4 | 16.1 | 0.00 | 0.00 | 0.00 | 71 | 1015.3 |
| 20260508184521 | 22 | 238 | 6.4 | 16.1 | 0.00 | 0.00 | 0.00 | 72 | 1015.4 |
| 20260508184025 | 21 | 263 | 9.7 | 16.1 | 0.00 | 0.00 | 0.00 | 72 | 1015.3 |
| 20260508183530 | 22 | 236 | 6.4 | 14.5 | 0.00 | 0.00 | 0.00 | 72 | 1015.4 |
| 20260508183036 | 21 | 290 | 6.4 | 12.9 | 0.00 | 0.00 | 0.00 | 72 | 1015.4 |
| 20260508182538 | 21 | 292 | 4.8 | 16.1 | 0.00 | 0.00 | 0.00 | 72 | 1015.4 |
| 20260508182044 | 21 | 251 | 4.8 | 16.1 | 0.00 | 0.00 | 0.00 | 72 | 1015.4 |
| 20260508181523 | 21 | 259 | 6.4 | 14.5 | 0.00 | 0.00 | 0.00 | 72 | 1015.5 |
| 20260508181051 | 21 | 250 | 3.2 | 11.3 | 0.00 | 0.00 | 0.00 | 73 | 1015.5 |
| 20260508180536 | 21 | 293 | 3.2 | 9.7 | 0.00 | 0.00 | 0.00 | 74 | 1015.6 |
| 20260508180017 | 21 | 281 | 4.8 | 9.7 | 0.00 | 0.00 | 0.00 | 74 | 1015.6 |
| 20260508175521 | 20 | 270 | 4.8 | 9.7 | 0.00 | 0.00 | 0.00 | 76 | 1015.6 |
| 20260508175022 | 20 | 254 | 3.2 | 8.0 | 0.00 | 0.00 | 0.00 | 76 | 1015.7 |
| 20260508174550 | 20 | 251 | 4.8 | 8.0 | 0.00 | 0.00 | 0.00 | 77 | 1015.7 |
| 20260508174100 | 20 | 270 | 1.6 | 8.0 | 0.00 | 0.00 | 0.00 | 78 | 1015.7 |
| 20260508173524 | 20 | 257 | 3.2 | 9.7 | 0.00 | 0.00 | 0.00 | 78 | 1015.7 |
| 20260508173019 | 19 | 301 | 3.2 | 9.7 | 0.00 | 0.00 | 0.00 | 79 | 1015.8 |
| 20260508172547 | 19 | 248 | 1.6 | 9.7 | 0.00 | 0.00 | 0.00 | 79 | 1015.8 |
| 20260508172018 | 19 | 262 | 3.2 | 9.7 | 0.00 | 0.00 | 0.00 | 79 | 1015.9 |
| 20260508171521 | 18 | 300 | 1.6 | 4.8 | 0.00 | 0.00 | 0.00 | 80 | 1015.8 |
| 20260508171024 | 18 | 303 | 0.0 | 4.8 | 0.00 | 0.00 | 0.00 | 80 | 1015.8 |
| 20260508170525 | 18 | 303 | 0.0 | 4.8 | 0.00 | 0.00 | 0.00 | 80 | 1015.8 |
| 20260508170028 | 18 | 31 | 0.0 | 4.8 | 0.00 | 0.00 | 0.00 | 81 | 1015.9 |
| 20260508165531 | 18 | 31 | 0.0 | 4.8 | 0.00 | 0.00 | 0.00 | 80 | 1015.9 |
| 20260508165033 | 18 | 29 | 0.0 | 4.8 | 0.00 | 0.00 | 0.00 | 81 | 1016.0 |
| 20260508164521 | 18 | 28 | 0.0 | 4.8 | 0.00 | 0.00 | 0.00 | 81 | 1016.0 |
| 20260508164025 | 18 | 38 | 0.0 | 3.2 | 0.00 | 0.00 | 0.00 | 81 | 1016.0 |
| 20260508163536 | 18 | 38 | 1.6 | 3.2 | 0.00 | 0.00 | 0.00 | 81 | 1016.0 |
| 20260508163041 | 18 | 74 | 0.0 | 1.6 | 0.00 | 0.00 | 0.00 | 82 | 1016.0 |
| 20260508162545 | 18 | 74 | 0.0 | 1.6 | 0.00 | 0.00 | 0.00 | 83 | 1016.0 |
| 20260508162029 | 18 | 74 | 0.0 | 1.6 | 0.00 | 0.00 | 0.00 | 83 | 1016.0 |
| 20260508161520 | 17 | 74 | 0.0 | 4.8 | 0.00 | 0.00 | 0.00 | 83 | 1016.1 |
| 20260508161021 | 17 | 74 | 1.6 | 4.8 | 0.00 | 0.00 | 0.00 | 83 | 1016.0 |
| 20260508160523 | 17 | 74 | 0.0 | 1.6 | 0.00 | 0.00 | 0.00 | 84 | 1016.1 |
| 20260508160027 | 17 | 74 | 0.0 | 1.6 | 0.00 | 0.00 | 0.00 | 84 | 1016.0 |
| 20260508155530 | 17 | 74 | 0.0 | 1.6 | 0.00 | 0.00 | 0.00 | 84 | 1016.0 |
| 20260508155036 | 17 | 74 | 0.0 | 3.2 | 0.00 | 0.00 | 0.00 | 85 | 1016.1 |
| 20260508154521 | 17 | 74 | 0.0 | 3.2 | 0.00 | 0.00 | 0.00 | 85 | 1016.0 |
| 20260508154024 | 17 | 74 | 0.0 | 1.6 | 0.00 | 0.00 | 0.00 | 85 | 1016.0 |
| 20260508153527 | 17 | 74 | 0.0 | 0.0 | 0.00 | 0.00 | 0.00 | 85 | 1016.1 |
| 20260508153036 | 17 | 74 | 0.0 | 4.8 | 0.00 | 0.00 | 0.00 | 85 | 1016.1 |
| 20260508152540 | 17 | 74 | 0.0 | 4.8 | 0.00 | 0.00 | 0.00 | 85 | 1016.2 |
| 20260508152025 | 17 | 74 | 1.6 | 6.4 | 0.00 | 0.00 | 0.00 | 85 | 1016.1 |
| 20260508151525 | 17 | 75 | 3.2 | 6.4 | 0.00 | 0.00 | 0.00 | 86 | 1016.1 |
| 20260508151027 | 17 | 73 | 1.6 | 6.4 | 0.00 | 0.00 | 0.00 | 86 | 1016.0 |
| 20260508150529 | 17 | 65 | 3.2 | 6.4 | 0.00 | 0.00 | 0.00 | 86 | 1016.0 |
| 20260508150029 | 17 | 61 | 0.0 | 4.8 | 0.00 | 0.00 | 0.00 | 86 | 1016.1 |
| 20260508145557 | 17 | 61 | 1.6 | 4.8 | 0.00 | 0.00 | 0.00 | 86 | 1016.0 |
| 20260508145017 | 17 | 60 | 0.0 | 4.8 | 0.00 | 0.00 | 0.00 | 86 | 1016.0 |
| 20260508144524 | 17 | 60 | 3.2 | 6.4 | 0.00 | 0.00 | 0.00 | 86 | 1016.0 |
| 20260508144044 | 16 | 61 | 3.2 | 6.4 | 0.00 | 0.00 | 0.00 | 87 | 1016.0 |
| 20260508143528 | 16 | 63 | 3.2 | 6.4 | 0.00 | 0.00 | 0.00 | 87 | 1015.9 |
| 20260508143034 | 16 | 64 | 1.6 | 4.8 | 0.00 | 0.00 | 0.00 | 87 | 1016.0 |
| 20260508142537 | 16 | 63 | 1.6 | 4.8 | 0.00 | 0.00 | 0.00 | 87 | 1016.0 |
| 20260508142020 | 16 | 63 | 1.6 | 4.8 | 0.00 | 0.00 | 0.00 | 87 | 1015.9 |
| 20260508141526 | 16 | 63 | 0.0 | 6.4 | 0.00 | 0.00 | 0.00 | 87 | 1015.9 |
| 20260508141030 | 16 | 63 | 0.0 | 6.4 | 0.00 | 0.00 | 0.00 | 87 | 1015.8 |
| 20260508140521 | 16 | 63 | 3.2 | 8.0 | 0.00 | 0.00 | 0.00 | 87 | 1015.8 |
| 20260508140019 | 16 | 63 | 4.8 | 8.0 | 0.00 | 0.00 | 0.00 | 87 | 1015.8 |
| 20260508135545 | 16 | 355 | 1.6 | 4.8 | 0.00 | 0.00 | 0.00 | 87 | 1015.6 |
| 20260508135028 | 16 | 351 | 3.2 | 4.8 | 0.00 | 0.00 | 0.00 | 87 | 1015.7 |
| 20260508134532 | 16 | 346 | 1.6 | 6.4 | 0.00 | 0.00 | 0.00 | 87 | 1015.7 |
| 20260508134100 | 16 | 346 | 0.0 | 6.4 | 0.00 | 0.00 | 0.00 | 88 | 1015.6 |
| 20260508133519 | 16 | 222 | 1.6 | 4.8 | 0.00 | 0.00 | 0.00 | 88 | 1015.6 |
| 20260508133035 | 16 | 222 | 1.6 | 3.2 | 0.00 | 0.00 | 0.00 | 88 | 1015.6 |
| 20260508132542 | 16 | 222 | 0.0 | 3.2 | 0.00 | 0.00 | 0.00 | 88 | 1015.5 |
| 20260508132025 | 16 | 222 | 0.0 | 3.2 | 0.00 | 0.00 | 0.00 | 88 | 1015.4 |
| 20260508131530 | 16 | 222 | 0.0 | 1.6 | 0.00 | 0.00 | 0.00 | 87 | 1015.5 |
| 20260508131017 | 16 | 222 | 0.0 | 1.6 | 0.00 | 0.00 | 0.00 | 87 | 1015.5 |
| 20260508130523 | 16 | 222 | 0.0 | 1.6 | 0.00 | 0.00 | 0.00 | 87 | 1015.4 |
| 20260508130027 | 16 | 222 | 0.0 | 1.6 | 0.00 | 0.00 | 0.00 | 87 | 1015.4 |
| 20260508125531 | 16 | 222 | 0.0 | 1.6 | 0.00 | 0.00 | 0.00 | 87 | 1015.3 |
| 20260508125056 | 16 | 222 | 0.0 | 4.8 | 0.00 | 0.00 | 0.00 | 87 | 1015.3 |
| 20260508124519 | 16 | 222 | 0.0 | 4.8 | 0.00 | 0.00 | 0.00 | 87 | 1015.3 |
| 20260508124028 | 16 | 222 | 0.0 | 3.2 | 0.00 | 0.00 | 0.00 | 87 | 1015.2 |
| 20260508123534 | 16 | 222 | 0.0 | 3.2 | 0.00 | 0.00 | 0.00 | 87 | 1015.3 |
| 20260508123039 | 16 | 222 | 0.0 | 3.2 | 0.00 | 0.00 | 0.00 | 87 | 1015.3 |
| 20260508122523 | 16 | 222 | 0.0 | 3.2 | 0.00 | 0.00 | 0.00 | 87 | 1015.2 |
| 20260508122023 | 16 | 222 | 0.0 | 1.6 | 0.00 | 0.00 | 0.00 | 87 | 1015.2 |
| 20260508121522 | 16 | 222 | 0.0 | 3.2 | 0.00 | 0.00 | 0.00 | 87 | 1015.2 |
| 20260508121048 | 16 | 222 | 0.0 | 3.2 | 0.00 | 0.00 | 0.00 | 87 | 1015.2 |
| 20260508120532 | 16 | 222 | 0.0 | 3.2 | 0.00 | 0.00 | 0.00 | 87 | 1015.2 |
| 20260508120031 | 16 | 222 | 0.0 | 3.2 | 0.00 | 0.00 | 0.00 | 87 | 1015.2 |
| 20260508115536 | 16 | 222 | 0.0 | 3.2 | 0.00 | 0.00 | 0.00 | 87 | 1015.2 |
| 20260508115021 | 16 | 222 | 0.0 | 1.6 | 0.00 | 0.00 | 0.00 | 87 | 1015.1 |
| 20260508114549 | 16 | 222 | 0.0 | 3.2 | 0.00 | 0.00 | 0.00 | 87 | 1015.1 |
| 20260508114030 | 16 | 222 | 0.0 | 3.2 | 0.00 | 0.00 | 0.00 | 87 | 1015.1 |
| 20260508113536 | 16 | 222 | 0.0 | 3.2 | 0.00 | 0.00 | 0.00 | 87 | 1015.1 |
| 20260508113037 | 16 | 222 | 0.0 | 6.4 | 0.00 | 0.00 | 0.00 | 87 | 1015.1 |
| 20260508112519 | 16 | 222 | 1.6 | 6.4 | 0.00 | 0.00 | 0.00 | 87 | 1015.1 |
| 20260508112025 | 16 | 213 | 1.6 | 4.8 | 0.00 | 0.00 | 0.00 | 88 | 1015.2 |
| 20260508111531 | 16 | 213 | 0.0 | 1.6 | 0.00 | 0.00 | 0.00 | 88 | 1015.2 |
| 20260508111036 | 16 | 212 | 0.0 | 1.6 | 0.00 | 0.00 | 0.00 | 88 | 1015.2 |
| 20260508110521 | 16 | 212 | 0.0 | 1.6 | 0.00 | 0.00 | 0.00 | 88 | 1015.1 |
| 20260508110046 | 16 | 212 | 0.0 | 1.6 | 0.00 | 0.00 | 0.00 | 88 | 1015.0 |
| 20260508105551 | 16 | 212 | 0.0 | 0.0 | 0.00 | 0.00 | 0.00 | 88 | 1015.1 |